Regional Weather Roundup
Issued by NWS Boston, MA

Home | Current Version | Previous Version | Text Only | Print | Product List | Glossary On
Versions: 1 2 3 4 5 6 7 8 9 10 11 12 13 14 15 16 17 18 19 20 21 22 23 24 25 26 27 28
000
ASUS41 KBOX 250510
RWRBOX

REGIONAL WEATHER ROUNDUP
NATIONAL WEATHER SERVICE BOSTON/NORTON MA
100 AM EDT FRI MAY 25 2018

NOTE:  "FAIR" INDICATES FEW OR NO CLOUDS BELOW 12,000 FEET WITH NO
SIGNIFICANT WEATHER AND/OR OBSTRUCTIONS TO VISIBILITY.

MAZALL-250600-
EASTERN MASSACHUSETTS

CITY           SKY/WX    TMP DP  RH WIND       PRES   REMARKS
BOSTON         FAIR      55  49  80 SW17      30.03F
BEVERLY        FAIR      56  48  74 SW10      30.01F
LAWRENCE       FAIR      58  49  72 SW9       30.02F
BEDFORD        FAIR      55  49  80 SW10      30.02F
BLUE HILL        N/A     50  48  93 S15       30.04F
NORWOOD        FAIR      55  49  80 SW10      30.05F
MARSHFIELD     FAIR      52  50  93 SW9       30.04F
PLYMOUTH       FAIR      51  49  92 SW8       30.07F
TAUNTON        FAIR      51  48  89 SW3       30.07F
NEW BEDFORD    FAIR      50  50 100 SW6       30.07F
$$

MAZALL-250600-
CAPE COD AND THE ISLANDS

CITY           SKY/WX    TMP DP  RH WIND       PRES   REMARKS
FALMOUTH       FAIR      50  50 100 SW9       30.09F
HYANNIS        FAIR      54  52  93 S10       30.06F
CHATHAM        CLOUDY    55  53  93 SW9G24    30.09F
PROVINCETOWN   FAIR      52  50  93 S17       30.06F
NANTUCKET      CLOUDY    52  52 100 SW12      30.10F
MARTHAS VNYRD  CLOUDY    51  51 100 SW8       30.10S
$$

MAZALL-250600-
CENTRAL AND WESTERN MASSACHUSETTS

CITY           SKY/WX    TMP DP  RH WIND       PRES   REMARKS
WORCESTER      NOT AVBL
FITCHBURG      FAIR      53  52  96 CALM      30.02F
ORANGE         FAIR      53  50  89 SE3       30.06F
SPRINGFIELD    FAIR      55  49  81 S6        30.05F
WESTFIELD      FAIR      56  53  90 SE5       30.05F
NORTH ADAMS    FAIR      51  45  79 CALM      30.05F
PITTSFIELD     FAIR      52  47  83 CALM      30.05F
$$

RIZALL-250600-
RHODE ISLAND

CITY           SKY/WX    TMP DP  RH WIND       PRES   REMARKS
PROVIDENCE     FAIR      51  49  92 S8        30.09F
NEWPORT        MOCLDY    51  50  96 VRB6      30.09F
BLOCK ISLAND   LGT RAIN  53  53 100 SW13      30.10F VSB 1/2
SMITHFIELD     FAIR      50  47  89 MISG      30.08F
WESTERLY       FOG       53  53 100 S6        30.10F VSB 1/4
$$

CTZALL-250600-
CONNECTICUT

CITY           SKY/WX    TMP DP  RH WIND       PRES   REMARKS
BRADLEY INTL   FAIR      55  52  89 S8        30.06F
HARTFORD       FAIR      54  52  93 S7        30.07F
BRIDGEPORT     FAIR      58  52  80 NE5       30.08F
DANBURY        FAIR      54  48  80 SW5       30.09F
GROTON         FOG       52  52 100 S7        30.09F VSB 1/4
NEW HAVEN      FAIR      54  51  90 N3        30.08F
CHESTER        FAIR      52  52 100 CALM      30.09F
MERIDEN        FAIR      52  51  97 CALM      30.08F
WILLIMANTIC    FAIR      52  50  93 S3        30.09F
OXFORD         FAIR      54  50  86 S3        30.09F
$$

MEZ002-015-021-024-NHZ003-005-008-011-012-014-VTZ005-008-250600-
NORTHERN NEW ENGLAND

CITY           SKY/WX    TMP DP  RH WIND       PRES   REMARKS
PORTLAND ME    FAIR      52  49  89 S5        29.96F
BANGOR ME      FAIR      51  46  83 S12       29.91F
CONCORD NH     FAIR      55  49  80 CALM      29.99F
MANCHESTER NH  FAIR      61  51  70 S7        29.99F
NASHUA NH      FAIR      58  52  80 CALM      30.01F
PORTSMOUTH NH  PTCLDY    53  48  82 SW6       29.98F
JAFFREY NH     FAIR      55  48  77 S7        30.04F
KEENE NH       FAIR      48  45  89 CALM      30.04
BURLINGTON VT  FAIR      66  42  41 S10       29.92F
MT. WASHINGTON PTCLDY    45  28  53 W56         N/A  WCI  32
$$

NYZ052-076-250600-
EASTERN NEW YORK

CITY           SKY/WX    TMP DP  RH WIND       PRES   REMARKS
ALBANY         FAIR      61  46  57 CALM      30.03S
NEW YORK CITY  FAIR      71  45  39 SW8       30.08S
$$

ANZALL-250600-
MARINE OBSERVATIONS

STATION/POSITION TIME  TEMP    WIND        PRES    VSBY  WAVE
                       AIR SEA DIR/SP/G                  HT/PER
                 (UTC) (F)     (DEG/KT/KT) (MB)    (MI)  (FT/S)
BOSTON BUOY      0450   54 54  200/ 12/ 14 1017.1F         2/ 4
BUZZARDS BAY     0400   50     220/ 15/ 16 1020.3F
NANTUCKET SOUND  0450   52 56  210/ 16/ 19 1018.8F         2/ 4
MASS BAY-STELLWA 0404   53 55              1015.8F         3/ 5
ISLE OF SHOALS   0400   55     190/ 16/ 17 1015.7F
S OF BLOCK IS    0443      51                N/A           3/ 8
$$

......................KEY.........................
  SKY/WX - SKY CONDITION/PRESENT WEATHER
  TMP    - TEMPERATURE IN FAHRENHEIT
  DWPT   - DEWPOINT IN FAHRENHEIT
  RH     - RELATIVE HUMIDITY IN PERCENT
  WIND   - DIRECTION AND SPEED IN MPH
  PRES   - MEAN SEA LEVEL PRESSURE IN INCHES OF HG
  WCI    - WIND CHILL INDEX
  VSB    - VISIBILITY IN MILES
  HX     - HEAT INDEX
  TC     - TEMPERATURE IN CELSIUS
  VRB    - VARIABLE WIND DIRECTION
  N/A    - NOT AVAILABLE




USA.gov is the U.S. government's official web portal to all federal, state and local government web resources and services.